Simultaneous Nadir Overpasses (SNOs) Predictions

Prediction of SNOs between NOAA-19 and NPP Satellite Orbit:

Table of predicted SNOs for the next 14.0 days since TLE Epoch: 7/19/2015
Index Date (NOAA-19) Time (NOAA-19) Lat,Lon (NOAA-19) SZA (NOAA-19 ) Date (NPP) Time (NPP) Lat,Lon (NPP) SZA (NPP ) Distance(km) Time Diff (sec)
1 07/23/2015 17:07:59 -81.03, 50.46 115.12 07/23/2015 17:09:02 -81.03, 50.31 115.14 2.66 63
2 07/23/2015 17:58:59 81.04,-142.61 64.93 07/23/2015 17:59:47 81.04,-142.49 64.89 2.07 48
3 07/23/2015 18:50:02 -81.04, 24.80 115.09 07/23/2015 18:50:32 -81.04, 24.88 115.11 1.30 30
4 07/23/2015 19:41:01 81.04,-167.90 64.92 07/23/2015 19:41:17 81.04,-167.92 64.92 0.70 16
5 07/23/2015 20:32:04 -81.03, -0.48 115.10 07/23/2015 20:32:02 -81.04, -0.56 115.09 1.37 2
6 07/23/2015
